Location: Greenwich
(51.4790°N, 0.0090°E)
Time: 06:51:28
(UTC+01:00)

Tiros 1 - Pass Details

Date: 27 April 2024
Orbit: 624 x 657 km, 48.4° (Epoch: 25 May)

Event Time Altitude Azimuth Distance (km) Brightness Sun altitude
Exits shadow 02:20:36 28° 127° (SE) 1,178 8.3 -22.1°
Drops below altitude 10° 02:22:55 10° 115° (ESE) 1,999 9.6 -22.0°
Sets 02:25:16 0° 111° (ESE) 2,902 10.5 -21.9°
